ED2YAA-3 Weather Reports


time (UTC)temp
C
wind
direction
speed
KPH
gust
KPH
rain 1hr
cm
rain 24hr
cm
rain mn
cm
humidity
%
barometer
mb
20260507060301 9 90 0.0 0.0 0.00 0.00 0.00 85 992.9
20260507053519 8 90 0.0 0.0 0.00 0.00 0.00 85 992.9
20260507050300 8 90 0.0 0.0 0.00 0.00 0.00 85 993.0
20260507043519 9 90 0.0 0.0 0.00 0.00 0.00 85 993.1
20260507040302 9 90 0.0 0.0 0.00 0.00 0.00 85 993.1
20260507033519 9 90 0.0 0.0 0.00 0.00 0.00 85 993.2
20260507030300 10 90 0.0 0.0 0.00 0.00 0.00 86 993.2
20260507023519 10 90 0.0 0.0 0.00 0.00 0.00 85 993.2
20260507020300 10 90 0.0 0.0 0.00 0.00 0.00 85 993.4
20260507013519 10 0 0.0 0.0 0.00 0.00 0.00 85 993.5
20260507010300 10 0 0.0 0.0 0.00 0.00 0.00 85 993.6
20260507003518 10 0 0.0 0.0 0.00 0.00 0.00 85 993.7
20260507000301 10 0 0.0 0.0 0.00 0.00 0.00 85 994.1
20260506233518 10 0 0.0 0.0 0.00 0.00 0.00 85 994.1
20260506230301 10 0 0.0 0.0 0.00 0.00 0.00 85 994.2
20260506224454 10 0 0.0 0.0 0.00 0.00 0.00 85 994.2
20260506223518 10 0 0.0 0.0 0.00 0.00 0.00 86 994.3
20260506214454 10 0 0.0 0.0 0.00 0.00 0.00 85 994.3
20260506213518 10 0 0.0 0.0 0.00 0.00 0.00 85 994.2
20260506204454 11 0 0.0 0.0 0.00 0.00 0.00 84 994.2
20260506203518 11 0 0.0 0.0 0.00 0.00 0.00 84 994.2
20260506194454 12 0 0.0 0.0 0.00 0.00 0.00 82 993.7
20260506193518 12 0 0.0 0.0 0.00 0.00 0.00 81 993.6
20260506184454 13 0 0.0 0.0 0.00 0.00 0.00 78 993.3
20260506183518 13 0 0.0 0.0 0.00 0.00 0.00 77 993.1
20260506174454 14 161 0.0 3.2 0.00 0.00 0.00 75 993.3
20260506173518 15 158 0.0 0.0 0.00 0.00 0.00 75 993.3
20260506164454 15 158 0.0 0.0 0.00 0.00 0.00 78 993.5
20260506163518 14 158 0.0 0.0 0.00 0.00 0.00 79 993.4
20260506154454 15 158 0.0 0.0 0.00 0.00 0.00 76 993.8
20260506153520 15 166 0.0 4.8 0.00 0.00 0.00 75 993.8
20260506144454 16 112 0.0 0.0 0.00 0.00 0.00 70 993.8
20260506143519 17 112 0.0 0.0 0.00 0.00 0.00 69 993.9
20260506134453 16 135 0.0 0.0 0.00 0.00 0.00 69 994.4
20260506133517 16 135 0.0 0.0 0.00 0.00 0.00 67 994.3
20260506124452 17 338 0.0 0.0 0.00 0.00 0.00 61 993.7
20260506123518 17 322 0.0 0.0 0.00 0.00 0.00 60 993.7
20260506114453 17 2 0.0 0.0 0.00 0.00 0.00 64 993.9
20260506113517 16 0 0.0 0.0 0.00 0.00 0.00 63 993.9
20260506104453 19 354 0.0 0.0 0.00 0.00 0.00 56 993.6
20260506103517 19 0 0.0 0.0 0.00 0.00 0.00 58 993.6
20260506094452 18 90 0.0 0.0 0.00 0.00 0.00 63 993.9
20260506093516 17 90 0.0 0.0 0.00 0.00 0.00 63 993.7
20260506084454 20 68 0.0 0.0 0.00 0.00 0.00 64 993.6
20260506083518 20 68 0.0 0.0 0.00 0.00 0.00 64 993.6
20260506073516 15 22 0.0 0.0 0.00 0.00 0.00 77 993.7
20260506070321 12 68 0.0 0.0 0.00 0.00 0.00 84 993.7